Content
SEND FEEDBACK

Daily
Averages
Monthly
Summary
United States of America

CHICAGO, ILLINOIS


Home > North America > United States > Illinois
Elevation: 674 feet     Latitude: 41 59N     Longitude: 087 54W

WEATHER
 
SELECT A DAY
Number of Records: 199,784;   Date Range: 7/8/95 - 12/24/14
 
SHARE

PRINT THIS DATA

[ ← Previous Day ]
WEATHER ALMANAC - FEBRUARY 24, 2013
[ Next Day → ]
[ °C ]   °F
Weather ElementAverageHighLow
Temperature28.1 °F37.9 °F (3:52 pm)18 °F (6:52 am)
Dewpoint17.9 °F21 °F (11:52 am)12.9 °F (4:52 am)
Humidity66.9 %85 % (11:52 pm)48 % (3:52 pm)
Barometer30.12 in30.17 in (7:52 pm)30.00 in (1:52 am)
Wind Speed2.5 mph6.9 mph (2:52 am)
Weather ElementAverage
Visibility9.4 mi
Wind DirectionESE (102.6 °)

Weather ElementTotal
Precipitation0.01 in
Heating Degree Days37.1 (Base 65)
Averaged from 23 records on February 24, 2013
WEATHER CONDITIONS BREAKOUT
WIND DIRECTION BREAKOUT
WEATHER BY HOUR - FEBRUARY 24, 2013
[ °C ]   °F
Local TimeTemperatureDewpointHumidityBarometerVisibilityWind DirectionWind SpeedGust SpeedPrecipitationEventsConditions
1:52 AM21.0 °F15.1 °F78 %30.00 in10.0 miWest (270°)5.8 mphClear
2:52 AM21.0 °F14.0 °F74 %30.01 in10.0 miWest (280°)6.9 mphClear
3:52 AM19.9 °F14.0 °F78 %30.03 in10.0 miWest (270°)4.6 mphScattered Clouds
4:52 AM19.0 °F12.9 °F77 %30.04 in9.0 miCalmClear
5:52 AM19.0 °F12.9 °F77 %30.07 in9.0 miCalmClear
6:52 AM18.0 °F12.9 °F81 %30.09 in6.0 miCalmHaze
7:52 AM19.9 °F14.0 °F78 %30.11 in7.0 miCalmClear
8:52 AM25.0 °F16.0 °F69 %30.12 in10.0 miWest (270°)4.6 mphClear
9:52 AM30.9 °F18.0 °F59 %30.13 in10.0 miWNW (290°)5.8 mphClear
10:52 AM33.1 °F19.9 °F59 %30.14 in10.0 miSW (230°)5.8 mphClear
11:52 AM36.0 °F21.0 °F55 %30.14 in10.0 miCalm0.01 inClear
12:52 PM36.0 °F21.0 °F55 %30.13 in10.0 miVariable3.5 mphClear
1:52 PM37.0 °F21.0 °F52 %30.13 in10.0 miSW (230°)5.8 mphClear
2:52 PM37.0 °F19.9 °F50 %30.12 in10.0 miVariable3.5 mphClear
3:52 PM37.9 °F19.9 °F48 %30.13 in10.0 miWSW (240°)5.8 mphClear
4:52 PM37.9 °F19.9 °F48 %30.13 in10.0 miWest (280°)4.6 mphClear
5:52 PM35.1 °F19.9 °F54 %30.14 in10.0 miCalmClear
6:52 PM32.0 °F21.0 °F64 %30.16 in10.0 miCalmClear
7:52 PM28.9 °F21.0 °F72 %30.17 in10.0 miCalmClear
8:52 PM28.0 °F19.9 °F72 %30.17 in10.0 miCalmClear
9:52 PM27.0 °F19.9 °F75 %30.17 in9.0 miCalmClear
10:52 PM25.0 °F19.0 °F78 %30.17 in8.0 miCalmClear
11:52 PM21.9 °F18.0 °F85 %30.17 in8.0 miCalmClear
Hourly data recorded from KPWK, located miles away from Chicago, Illinois







STORIES FROM OUR PARTNERS